Weather History for KSPS - August, 2013

Change the Weather History Date:

Saturday, August 24, 2013

  Actual Average Record
Temperature  
Mean Temperature 86 °F 83 °F  
Max Temperature 98 °F 96 °F 109 °F (2006)
Min Temperature 73 °F 71 °F 56 °F (1966)
Cooling Degree Days 21 18  
Month to date cooling degree days 469 468  
Year to date cooling degree days 1915 1824  
Growing Degree Days 36 (Base 50)    
Moisture  
Dew Point 66 °F    
Average Humidity 56    
Maximum Humidity 79    
Minimum Humidity 33    
Precipitation  
Precipitation 0.00 in 0.07 in 3.20 in (1915)
Month to date precipitation 1.49 1.85  
Year to date precipitation 15.48 19.08  
Sea Level Pressure  
Sea Level Pressure 29.99 in    
Wind  
Wind Speed 6 mph (SE)    
Max Wind Speed 18 mph    
Max Gust Speed 22 mph    
Visibility 10 miles    
Events      
T = Trace of Precipitation, MM = Missing Value Source: NWS Daily Summary

Daily Weather History Graph

Daily Weather History Graph

Search for Another Location

Airport or City:

Trip Planner

Search our weather history database for the weather conditions in past years. The results will help you decide how hot, cold, wet, or windy it might be!

Date:

Astronomy

Aug. 24, 2013 Rise Set
Actual Time 7:02 AM CDT 8:09 PM CDT
Civil Twilight 6:36 AM CDT 8:35 PM CDT
Nautical Twilight 6:05 AM CDT 9:06 PM CDT
Astronomical Twilight 5:33 AM CDT 9:37 PM CDT
Moon 10:19 PM CDT (8/24) 10:49 AM CDT (8/24)
Length of Visible Light 13h 59m
Length of Day
13h 07m
Waning Gibbous, 84% of the Moon is Illuminated
Aug 24
Waning Gibbous
Aug 28
Last Quarter
Sep 5
New
Sep 12
First Quarter
Sep 19
Full

Hourly Weather History & Observations

Time (CDT) Temp. Heat Index Dew Point Humidity Pressure Visibility Wind Dir Wind Speed Gust Speed Precip Events Conditions
12:52 AM 82.0 °F 84.5 °F 66.9 °F 60% 29.96 in 10.0 mi SE 9.2 mph - N/A   Scattered Clouds
1:52 AM 81.0 °F 83.3 °F 66.9 °F 62% 29.96 in 10.0 mi SE 5.8 mph - N/A   Clear
2:52 AM 79.0 °F - 66.9 °F 66% 29.95 in 10.0 mi ENE 3.5 mph - N/A   Clear
3:52 AM 77.0 °F - 66.9 °F 71% 29.96 in 10.0 mi East 4.6 mph - N/A   Mostly Cloudy
4:52 AM 75.0 °F - 66.9 °F 76% 29.97 in 10.0 mi East 3.5 mph - N/A   Clear
5:52 AM 75.0 °F - 68.0 °F 79% 29.97 in 10.0 mi East 3.5 mph - N/A   Clear
6:52 AM 75.0 °F - 68.0 °F 79% 29.99 in 10.0 mi Calm Calm - N/A   Clear
7:52 AM 75.0 °F - 68.0 °F 79% 30.02 in 10.0 mi Calm Calm - N/A   Clear
8:52 AM 79.0 °F - 68.0 °F 69% 30.03 in 9.0 mi ESE 3.5 mph - N/A   Clear
9:52 AM 84.0 °F 87.0 °F 68.0 °F 58% 30.03 in 10.0 mi Variable 4.6 mph - N/A   Clear
10:52 AM 89.1 °F 92.1 °F 66.9 °F 48% 30.04 in 10.0 mi WSW 3.5 mph - N/A   Clear
11:52 AM 93.0 °F 94.6 °F 64.0 °F 38% 30.04 in 10.0 mi SSE 6.9 mph - N/A   Clear
12:52 PM 96.1 °F 97.3 °F 63.0 °F 33% 30.01 in 10.0 mi South 8.1 mph - N/A   Clear
1:52 PM 96.1 °F 97.3 °F 63.0 °F 33% 29.99 in 10.0 mi SE 8.1 mph - N/A   Partly Cloudy
2:52 PM 93.9 °F 95.2 °F 63.0 °F 36% 29.99 in 10.0 mi SE 10.4 mph - N/A   Clear
3:52 PM 95.0 °F 97.0 °F 64.0 °F 36% 29.97 in 10.0 mi SE 11.5 mph - N/A   Clear
4:52 PM 93.9 °F 95.2 °F 63.0 °F 36% 29.96 in 10.0 mi SE 11.5 mph - N/A   Clear
5:52 PM 93.0 °F 95.0 °F 64.9 °F 39% 29.96 in 10.0 mi SSE 17.3 mph - N/A   Clear
6:52 PM 89.1 °F 91.0 °F 64.9 °F 45% 29.96 in 10.0 mi SE 5.8 mph - N/A   Clear
7:52 PM 84.9 °F 87.6 °F 66.9 °F 55% 29.96 in 10.0 mi South 4.6 mph - N/A   Clear
8:52 PM 82.9 °F 85.4 °F 66.9 °F 58% 29.98 in 10.0 mi SE 3.5 mph - N/A   Clear
9:52 PM 82.0 °F 84.9 °F 68.0 °F 62% 30.00 in 10.0 mi East 4.6 mph - N/A   Clear
10:52 PM 80.1 °F 82.7 °F 68.0 °F 67% 30.01 in 10.0 mi East 6.9 mph - N/A   Clear
11:52 PM 80.1 °F 82.3 °F 66.9 °F 64% 30.02 in 10.0 mi East 5.8 mph - N/A   Clear